Year,Month,Day,Hour,Minute,Value (Times are PST for temperature in C)
2017,03,21,00,00,7.10
2017,03,21,00,01,7.10
2017,03,21,00,02,7.10
2017,03,21,00,03,7.10
2017,03,21,00,04,7.20
2017,03,21,00,05,7.20
2017,03,21,00,06,7.20
2017,03,21,00,07,7.20
2017,03,21,00,08,7.20
2017,03,21,00,09,7.20
2017,03,21,00,10,7.20
2017,03,21,00,11,7.20
2017,03,21,00,12,7.20
2017,03,21,00,13,7.20
2017,03,21,00,14,7.20
2017,03,21,00,15,7.20
2017,03,21,00,16,7.20
2017,03,21,00,17,7.20
2017,03,21,00,18,7.20
2017,03,21,00,19,7.20
2017,03,21,00,20,7.20
2017,03,21,00,21,7.20
2017,03,21,00,22,7.20
2017,03,21,00,23,7.20
2017,03,21,00,24,7.20
2017,03,21,00,25,7.20
2017,03,21,00,26,7.20
2017,03,21,00,27,7.20
2017,03,21,00,28,7.20
2017,03,21,00,29,7.20
2017,03,21,00,30,7.20
2017,03,21,00,31,7.30
2017,03,21,00,32,7.30
2017,03,21,00,33,7.30
2017,03,21,00,34,7.30
2017,03,21,00,35,7.30
2017,03,21,00,36,7.30
2017,03,21,00,37,7.30
2017,03,21,00,38,7.30
2017,03,21,00,39,7.30
2017,03,21,00,40,7.30
2017,03,21,00,41,7.30
2017,03,21,00,42,7.30
2017,03,21,00,43,7.30
2017,03,21,00,44,7.30
2017,03,21,00,45,7.40
2017,03,21,00,46,7.40
2017,03,21,00,47,7.40
2017,03,21,00,48,7.40
2017,03,21,00,49,7.40
2017,03,21,00,50,7.40
2017,03,21,00,51,7.40
2017,03,21,00,52,7.40
2017,03,21,00,53,7.40
2017,03,21,00,54,7.40
2017,03,21,00,55,7.40
2017,03,21,00,56,7.40
2017,03,21,00,57,7.40
2017,03,21,00,58,7.40
2017,03,21,00,59,7.40
2017,03,21,01,00,7.40
2017,03,21,01,01,7.50
2017,03,21,01,02,7.50
2017,03,21,01,03,7.50
2017,03,21,01,04,7.60
2017,03,21,01,05,7.60
2017,03,21,01,06,7.60
2017,03,21,01,07,7.60
2017,03,21,01,08,7.60
2017,03,21,01,09,7.60
2017,03,21,01,10,7.60
2017,03,21,01,11,7.60
2017,03,21,01,12,7.60
2017,03,21,01,13,7.60
2017,03,21,01,14,7.60
2017,03,21,01,15,7.60
2017,03,21,01,16,7.70
2017,03,21,01,17,7.70
2017,03,21,01,18,7.70
2017,03,21,01,19,7.70
2017,03,21,01,20,7.70
2017,03,21,01,21,7.70
2017,03,21,01,22,7.70
2017,03,21,01,23,7.70
2017,03,21,01,24,7.70
2017,03,21,01,25,7.70
2017,03,21,01,26,7.70
2017,03,21,01,27,7.70
2017,03,21,01,28,7.70
2017,03,21,01,29,7.70
2017,03,21,01,30,7.70
2017,03,21,01,31,7.70
2017,03,21,01,32,7.70
2017,03,21,01,33,7.70
2017,03,21,01,34,7.70
2017,03,21,01,35,7.70
2017,03,21,01,36,7.60
2017,03,21,01,37,7.60
2017,03,21,01,38,7.60
2017,03,21,01,39,7.70
2017,03,21,01,40,7.70
2017,03,21,01,41,7.70
2017,03,21,01,42,7.70
2017,03,21,01,43,7.70
2017,03,21,01,44,7.70
2017,03,21,01,45,7.70
2017,03,21,01,46,7.70
2017,03,21,01,47,7.70
2017,03,21,01,48,7.70
2017,03,21,01,49,7.70
2017,03,21,01,50,7.70
2017,03,21,01,51,7.70
2017,03,21,01,52,7.80
2017,03,21,01,53,7.80
2017,03,21,01,54,7.80
2017,03,21,01,55,7.80
2017,03,21,01,56,7.70
2017,03,21,01,57,7.70
2017,03,21,01,58,7.70
2017,03,21,01,59,7.70
2017,03,21,02,00,7.70
2017,03,21,02,01,7.70
2017,03,21,02,02,7.70
2017,03,21,02,03,7.70
2017,03,21,02,04,7.70
2017,03,21,02,05,7.70
2017,03,21,02,06,7.70
2017,03,21,02,07,7.70
2017,03,21,02,08,7.60
2017,03,21,02,09,7.60
2017,03,21,02,10,7.60
2017,03,21,02,11,7.60
2017,03,21,02,12,7.50
2017,03,21,02,13,7.50
2017,03,21,02,14,7.40
2017,03,21,02,15,7.40
2017,03,21,02,16,7.40
2017,03,21,02,17,7.40
2017,03,21,02,18,7.30
2017,03,21,02,19,7.30
2017,03,21,02,20,7.30
2017,03,21,02,21,7.30
2017,03,21,02,22,7.20
2017,03,21,02,23,7.20
2017,03,21,02,24,7.20
2017,03,21,02,25,7.20
2017,03,21,02,26,7.20
2017,03,21,02,27,7.20
2017,03,21,02,28,7.20
2017,03,21,02,29,7.20
2017,03,21,02,30,7.10
2017,03,21,02,31,7.10
2017,03,21,02,32,7.10
2017,03,21,02,33,7.10
2017,03,21,02,34,7.10
2017,03,21,02,35,7.10
2017,03,21,02,36,7.10
2017,03,21,02,37,7.10
2017,03,21,02,38,7.10
2017,03,21,02,39,7.10
2017,03,21,02,40,7.10
2017,03,21,02,41,7.10
2017,03,21,02,42,7.10
2017,03,21,02,43,7.10
2017,03,21,02,44,7.10
2017,03,21,02,45,7.10
2017,03,21,02,46,7.10
2017,03,21,02,47,7.10
2017,03,21,02,48,7.10
2017,03,21,02,49,7.00
2017,03,21,02,50,7.00
2017,03,21,02,51,7.00
2017,03,21,02,52,6.90
2017,03,21,02,53,6.90
2017,03,21,02,54,6.90
2017,03,21,02,55,6.80
2017,03,21,02,56,6.80
2017,03,21,02,57,6.80
2017,03,21,02,58,6.80
2017,03,21,02,59,6.80
2017,03,21,03,00,6.80
2017,03,21,03,01,6.70
2017,03,21,03,02,6.70
2017,03,21,03,03,6.70
2017,03,21,03,04,6.70
2017,03,21,03,05,6.70
2017,03,21,03,06,6.70
2017,03,21,03,07,6.70
2017,03,21,03,08,6.70
2017,03,21,03,09,6.60
2017,03,21,03,10,6.60
2017,03,21,03,11,6.60
2017,03,21,03,12,6.60
2017,03,21,03,13,6.50
2017,03,21,03,14,6.50
2017,03,21,03,15,6.50
2017,03,21,03,16,6.40
2017,03,21,03,17,6.40
2017,03,21,03,18,6.40
2017,03,21,03,19,6.40
2017,03,21,03,20,6.40
2017,03,21,03,21,6.30
2017,03,21,03,22,6.30
2017,03,21,03,23,6.30
2017,03,21,03,24,6.30
2017,03,21,03,25,6.30
2017,03,21,03,26,6.30
2017,03,21,03,27,6.30
2017,03,21,03,28,6.20
2017,03,21,03,29,6.20
2017,03,21,03,30,6.20
2017,03,21,03,31,6.20
2017,03,21,03,32,6.20
2017,03,21,03,33,6.20
2017,03,21,03,34,6.20
2017,03,21,03,35,6.20
2017,03,21,03,36,6.20
2017,03,21,03,37,6.20
2017,03,21,03,38,6.10
2017,03,21,03,39,6.10
2017,03,21,03,40,6.10
2017,03,21,03,41,6.10
2017,03,21,03,42,6.10
2017,03,21,03,43,6.10
2017,03,21,03,44,6.10
2017,03,21,03,45,6.10
2017,03,21,03,46,6.10
2017,03,21,03,47,6.10
2017,03,21,03,48,6.10
2017,03,21,03,49,6.10
2017,03,21,03,50,6.10
2017,03,21,03,51,6.10
2017,03,21,03,52,6.10
2017,03,21,03,53,6.10
2017,03,21,03,54,6.10
2017,03,21,03,55,6.10
2017,03,21,03,56,6.10
2017,03,21,03,57,6.10
2017,03,21,03,58,6.10
2017,03,21,03,59,6.10
2017,03,21,04,00,6.10
2017,03,21,04,01,6.10
2017,03,21,04,02,6.10
2017,03,21,04,03,6.10
2017,03,21,04,04,6.10
2017,03,21,04,05,6.10
2017,03,21,04,06,6.00
2017,03,21,04,07,6.00
2017,03,21,04,08,6.00
2017,03,21,04,09,6.00
2017,03,21,04,10,6.00
2017,03,21,04,11,6.00
2017,03,21,04,12,6.00
2017,03,21,04,13,6.00
2017,03,21,04,14,6.00
2017,03,21,04,15,6.00
2017,03,21,04,16,6.00
2017,03,21,04,17,6.00
2017,03,21,04,18,5.90
2017,03,21,04,19,5.90
2017,03,21,04,20,5.90
2017,03,21,04,21,5.90
2017,03,21,04,22,5.90
2017,03,21,04,23,5.90
2017,03,21,04,24,5.90
2017,03,21,04,25,5.90
2017,03,21,04,26,5.90
2017,03,21,04,27,5.90
2017,03,21,04,28,5.90
2017,03,21,04,29,5.90
2017,03,21,04,30,5.90
2017,03,21,04,31,5.90
2017,03,21,04,32,5.90
2017,03,21,04,33,5.90
2017,03,21,04,34,5.90
2017,03,21,04,35,5.90
2017,03,21,04,36,5.90
2017,03,21,04,37,5.90
2017,03,21,04,38,5.90
2017,03,21,04,39,5.90
2017,03,21,04,40,5.90
2017,03,21,04,41,5.90
2017,03,21,04,42,5.90
2017,03,21,04,43,5.90
2017,03,21,04,44,5.90
2017,03,21,04,45,5.90
2017,03,21,04,46,5.90
2017,03,21,04,47,5.90
2017,03,21,04,48,5.90
2017,03,21,04,49,5.90
2017,03,21,04,50,5.90
2017,03,21,04,51,5.90
2017,03,21,04,52,5.90
2017,03,21,04,53,5.90
2017,03,21,04,54,5.90
2017,03,21,04,55,5.90
2017,03,21,04,56,5.90
2017,03,21,04,57,5.90
2017,03,21,04,58,5.90
2017,03,21,04,59,5.90
2017,03,21,05,00,5.90
2017,03,21,05,01,5.90
2017,03,21,05,02,5.90
2017,03,21,05,03,5.90
2017,03,21,05,04,5.90
2017,03,21,05,05,5.90
2017,03,21,05,06,5.90
2017,03,21,05,07,5.80
2017,03,21,05,08,5.80
2017,03,21,05,09,5.80
2017,03,21,05,10,5.80
2017,03,21,05,11,5.80
2017,03,21,05,12,5.80
2017,03,21,05,13,5.80
2017,03,21,05,14,5.80
2017,03,21,05,15,5.70
2017,03,21,05,16,5.70
2017,03,21,05,17,5.70
2017,03,21,05,18,5.70
2017,03,21,05,19,5.70
2017,03,21,05,20,5.60
2017,03,21,05,21,5.60
2017,03,21,05,22,5.60
2017,03,21,05,23,5.60
2017,03,21,05,24,5.60
2017,03,21,05,25,5.60
2017,03,21,05,26,5.50
2017,03,21,05,27,5.50
2017,03,21,05,28,5.50
2017,03,21,05,29,5.50
2017,03,21,05,30,5.40
2017,03,21,05,31,5.40
2017,03,21,05,32,5.40
2017,03,21,05,33,5.40
2017,03,21,05,34,5.40
2017,03,21,05,35,5.40
2017,03,21,05,36,5.40
2017,03,21,05,37,5.40
2017,03,21,05,38,5.40
2017,03,21,05,39,5.40
2017,03,21,05,40,5.40
2017,03,21,05,41,5.30
2017,03,21,05,42,5.30
2017,03,21,05,43,5.30
2017,03,21,05,44,5.30
2017,03,21,05,45,5.30
2017,03,21,05,46,5.30
2017,03,21,05,47,5.30
2017,03,21,05,48,5.30
2017,03,21,05,49,5.30
2017,03,21,05,50,5.30
2017,03,21,05,51,5.30
2017,03,21,05,52,5.30
2017,03,21,05,53,5.30
2017,03,21,05,54,5.30
2017,03,21,05,55,5.30
2017,03,21,05,56,5.30
2017,03,21,05,57,5.30
2017,03,21,05,58,5.20
2017,03,21,05,59,5.20
2017,03,21,06,00,5.20
2017,03,21,06,01,5.20
2017,03,21,06,02,5.20
2017,03,21,06,03,5.20
2017,03,21,06,04,5.20
2017,03,21,06,05,5.20
2017,03,21,06,06,5.20
2017,03,21,06,07,5.20
2017,03,21,06,08,5.20
2017,03,21,06,09,5.20
2017,03,21,06,10,5.20
2017,03,21,06,11,5.20
2017,03,21,06,12,5.20
2017,03,21,06,13,5.20
2017,03,21,06,14,5.20
2017,03,21,06,15,5.20
2017,03,21,06,16,5.20
2017,03,21,06,17,5.20
2017,03,21,06,18,5.20
2017,03,21,06,19,5.20
2017,03,21,06,20,5.20
2017,03,21,06,21,5.20
2017,03,21,06,22,5.20
2017,03,21,06,23,5.10
2017,03,21,06,24,5.10
2017,03,21,06,25,5.10
2017,03,21,06,26,5.10
2017,03,21,06,27,5.10
2017,03,21,06,28,5.10
2017,03,21,06,29,5.10
2017,03,21,06,30,5.10
2017,03,21,06,31,5.10
2017,03,21,06,32,5.10
2017,03,21,06,33,5.10
2017,03,21,06,34,5.10
2017,03,21,06,35,5.10
2017,03,21,06,36,5.10
2017,03,21,06,37,5.10
2017,03,21,06,38,5.10
2017,03,21,06,39,5.10
2017,03,21,06,40,5.10
2017,03,21,06,41,5.10
2017,03,21,06,42,5.10
2017,03,21,06,43,5.10
2017,03,21,06,44,5.00
2017,03,21,06,45,5.00
2017,03,21,06,46,5.00
2017,03,21,06,47,5.00
2017,03,21,06,48,5.00
2017,03,21,06,49,5.00
2017,03,21,06,50,5.00
2017,03,21,06,51,5.00
2017,03,21,06,52,5.00
2017,03,21,06,53,5.00
2017,03,21,06,54,5.00
2017,03,21,06,55,5.00
2017,03,21,06,56,5.00
2017,03,21,06,57,5.00
2017,03,21,06,58,5.00
2017,03,21,06,59,5.00
2017,03,21,07,00,5.00
2017,03,21,07,01,5.00
2017,03,21,07,02,5.00
2017,03,21,07,03,5.00
2017,03,21,07,04,4.90
2017,03,21,07,05,4.90
2017,03,21,07,06,5.00
2017,03,21,07,07,4.90
2017,03,21,07,08,4.90
2017,03,21,07,09,4.90
2017,03,21,07,10,5.00
2017,03,21,07,11,4.90
2017,03,21,07,12,5.00
2017,03,21,07,13,5.00
2017,03,21,07,14,5.00
2017,03,21,07,15,5.00
2017,03,21,07,16,5.00
2017,03,21,07,17,5.00
2017,03,21,07,18,5.00
2017,03,21,07,19,5.00
2017,03,21,07,20,5.00
2017,03,21,07,21,5.00
2017,03,21,07,22,5.00
2017,03,21,07,23,5.00
2017,03,21,07,24,5.00
2017,03,21,07,25,5.00
2017,03,21,07,26,5.00
2017,03,21,07,27,5.00
2017,03,21,07,28,5.00
2017,03,21,07,29,5.00
2017,03,21,07,30,5.00
2017,03,21,07,31,5.00
2017,03,21,07,32,5.00
2017,03,21,07,33,5.00
2017,03,21,07,34,5.00
2017,03,21,07,35,5.00
2017,03,21,07,36,5.00
2017,03,21,07,37,5.00
2017,03,21,07,38,5.00
2017,03,21,07,39,5.00
2017,03,21,07,40,5.00
2017,03,21,07,41,5.00
2017,03,21,07,42,5.00
2017,03,21,07,43,5.00
2017,03,21,07,44,5.00
2017,03,21,07,45,5.00
2017,03,21,07,46,5.00
2017,03,21,07,47,5.00
2017,03,21,07,48,5.00
2017,03,21,07,49,5.00
2017,03,21,07,50,5.00
2017,03,21,07,51,5.00
2017,03,21,07,52,5.00
2017,03,21,07,53,5.00
2017,03,21,07,54,5.10
2017,03,21,07,55,5.10
2017,03,21,07,56,5.00
2017,03,21,07,57,5.10
2017,03,21,07,58,5.00
2017,03,21,07,59,5.00
2017,03,21,08,00,5.10
2017,03,21,08,01,5.10
2017,03,21,08,02,5.10
2017,03,21,08,03,5.10
2017,03,21,08,04,5.00
2017,03,21,08,05,5.00
2017,03,21,08,06,5.00
2017,03,21,08,07,5.00
2017,03,21,08,08,5.00
2017,03,21,08,09,5.00
2017,03,21,08,10,5.00
2017,03,21,08,11,5.00
2017,03,21,08,12,5.00
2017,03,21,08,13,5.00
2017,03,21,08,14,5.00
2017,03,21,08,15,5.00
2017,03,21,08,16,5.00
2017,03,21,08,17,5.00
2017,03,21,08,18,5.00
2017,03,21,08,19,5.00
2017,03,21,08,20,5.00
2017,03,21,08,21,5.00
2017,03,21,08,22,5.00
2017,03,21,08,23,5.00
2017,03,21,08,24,5.00
2017,03,21,08,25,5.00
2017,03,21,08,26,5.00
2017,03,21,08,27,5.00
2017,03,21,08,28,5.00
2017,03,21,08,29,5.00
2017,03,21,08,30,5.00
2017,03,21,08,31,5.00
2017,03,21,08,32,5.00
2017,03,21,08,33,5.00
2017,03,21,08,34,5.00
2017,03,21,08,35,5.00
2017,03,21,08,36,5.00
2017,03,21,08,37,5.00
2017,03,21,08,38,5.00
2017,03,21,08,39,5.00
2017,03,21,08,40,5.00
2017,03,21,08,41,5.00
2017,03,21,08,42,5.10
2017,03,21,08,43,5.10
2017,03,21,08,44,5.10
2017,03,21,08,45,5.10
2017,03,21,08,46,5.10
2017,03,21,08,47,5.10
2017,03,21,08,48,5.10
2017,03,21,08,49,5.10
2017,03,21,08,50,5.10
2017,03,21,08,51,5.10
2017,03,21,08,52,5.10
2017,03,21,08,53,5.10
2017,03,21,08,54,5.10
2017,03,21,08,55,5.10
2017,03,21,08,56,5.10
2017,03,21,08,57,5.10
2017,03,21,08,58,5.10
2017,03,21,08,59,5.00
2017,03,21,09,00,5.10
2017,03,21,09,01,5.00
2017,03,21,09,02,5.00
2017,03,21,09,03,5.00
2017,03,21,09,04,5.00
2017,03,21,09,05,5.00
2017,03,21,09,06,5.00
2017,03,21,09,07,5.00
2017,03,21,09,08,5.00
2017,03,21,09,09,5.00
2017,03,21,09,10,5.00
2017,03,21,09,11,5.00
2017,03,21,09,12,5.00
2017,03,21,09,13,5.00
2017,03,21,09,14,5.00
2017,03,21,09,15,5.00
2017,03,21,09,16,4.90
2017,03,21,09,17,5.00
2017,03,21,09,18,5.00
2017,03,21,09,19,5.00
2017,03,21,09,20,5.00
2017,03,21,09,21,4.90
2017,03,21,09,22,4.90
2017,03,21,09,23,4.90
2017,03,21,09,24,4.90
2017,03,21,09,25,4.90
2017,03,21,09,26,4.90
2017,03,21,09,27,4.90
2017,03,21,09,28,4.90
2017,03,21,09,29,4.90
2017,03,21,09,30,4.90
2017,03,21,09,31,4.90
2017,03,21,09,32,4.90
2017,03,21,09,33,4.90
2017,03,21,09,34,4.90
2017,03,21,09,35,4.90
2017,03,21,09,36,4.90
2017,03,21,09,37,4.90
2017,03,21,09,38,4.90
2017,03,21,09,39,4.90
2017,03,21,09,40,4.90
2017,03,21,09,41,4.90
2017,03,21,09,42,4.90
2017,03,21,09,43,5.00
2017,03,21,09,44,5.00
2017,03,21,09,45,5.00
2017,03,21,09,46,5.00
2017,03,21,09,47,5.00
2017,03,21,09,48,5.00
2017,03,21,09,49,5.10
2017,03,21,09,50,5.10
2017,03,21,09,51,5.10
2017,03,21,09,52,5.10
2017,03,21,09,53,5.10
2017,03,21,09,54,5.10
2017,03,21,09,55,5.10
2017,03,21,09,56,5.10
2017,03,21,09,57,5.10
2017,03,21,09,58,5.10
2017,03,21,09,59,5.20
2017,03,21,10,00,5.20
2017,03,21,10,01,5.20
2017,03,21,10,02,5.20
2017,03,21,10,03,5.20
2017,03,21,10,04,5.20
2017,03,21,10,05,5.20
2017,03,21,10,06,5.20
2017,03,21,10,07,5.20
2017,03,21,10,08,5.20
2017,03,21,10,09,5.30
2017,03,21,10,10,5.30
2017,03,21,10,11,5.30
2017,03,21,10,12,5.20
2017,03,21,10,13,5.20
2017,03,21,10,14,5.20
2017,03,21,10,15,5.20
2017,03,21,10,16,5.20
2017,03,21,10,17,5.30
2017,03,21,10,18,5.30
2017,03,21,10,19,5.30
2017,03,21,10,20,5.30
2017,03,21,10,21,5.30
2017,03,21,10,22,5.30
2017,03,21,10,23,5.30
2017,03,21,10,24,5.30
2017,03,21,10,25,5.30
2017,03,21,10,26,5.40
2017,03,21,10,27,5.40
2017,03,21,10,28,5.40
2017,03,21,10,29,5.40
2017,03,21,10,30,5.40
2017,03,21,10,31,5.40
2017,03,21,10,32,5.40
2017,03,21,10,33,5.40
2017,03,21,10,34,5.40
2017,03,21,10,35,5.40
2017,03,21,10,36,5.40
2017,03,21,10,37,5.40
2017,03,21,10,38,5.40
2017,03,21,10,39,5.40
2017,03,21,10,40,5.40
2017,03,21,10,41,5.30
2017,03,21,10,42,5.30
2017,03,21,10,43,5.40
2017,03,21,10,44,5.40
2017,03,21,10,45,5.40
2017,03,21,10,46,5.40
2017,03,21,10,47,5.40
2017,03,21,10,48,5.40
2017,03,21,10,49,5.40
2017,03,21,10,50,5.40
2017,03,21,10,51,5.40
2017,03,21,10,52,5.40
2017,03,21,10,53,5.40
2017,03,21,10,54,5.40
2017,03,21,10,55,5.40
2017,03,21,10,56,5.40
2017,03,21,10,57,5.40
2017,03,21,10,58,5.40
2017,03,21,10,59,5.40
2017,03,21,11,00,5.50
2017,03,21,11,01,5.50
2017,03,21,11,02,5.40
2017,03,21,11,03,5.40
2017,03,21,11,04,5.40
2017,03,21,11,05,5.50
2017,03,21,11,06,5.50
2017,03,21,11,07,5.60
2017,03,21,11,08,5.60
2017,03,21,11,09,5.60
2017,03,21,11,10,5.70
2017,03,21,11,11,5.70
2017,03,21,11,12,5.70
2017,03,21,11,13,5.70
2017,03,21,11,14,5.70
2017,03,21,11,15,5.70
2017,03,21,11,16,5.70
2017,03,21,11,17,5.70
2017,03,21,11,18,5.70
2017,03,21,11,19,5.70
2017,03,21,11,20,5.70
2017,03,21,11,21,5.80
2017,03,21,11,22,5.80
2017,03,21,11,23,5.80
2017,03,21,11,24,5.80
2017,03,21,11,25,5.80
2017,03,21,11,26,5.80
2017,03,21,11,27,5.80
2017,03,21,11,28,5.80
2017,03,21,11,29,5.90
2017,03,21,11,30,5.90
2017,03,21,11,31,5.80
2017,03,21,11,32,5.80
2017,03,21,11,33,5.80
2017,03,21,11,34,5.90
2017,03,21,11,35,5.90
2017,03,21,11,36,5.90
2017,03,21,11,37,5.90
2017,03,21,11,38,5.90
2017,03,21,11,39,5.90
2017,03,21,11,40,5.90
2017,03,21,11,41,6.00
2017,03,21,11,42,6.00
2017,03,21,11,43,6.10
2017,03,21,11,44,6.20
2017,03,21,11,45,6.20
2017,03,21,11,46,6.20
2017,03,21,11,47,6.30
2017,03,21,11,48,6.30
2017,03,21,11,49,6.30
2017,03,21,11,50,6.30
2017,03,21,11,51,6.30
2017,03,21,11,52,6.30
2017,03,21,11,53,6.30
2017,03,21,11,54,6.30
2017,03,21,11,55,6.30
2017,03,21,11,56,6.30
2017,03,21,11,57,6.30
2017,03,21,11,58,6.30
2017,03,21,11,59,6.30
2017,03,21,12,00,6.30
2017,03,21,12,01,6.40
2017,03,21,12,02,6.40
2017,03,21,12,03,6.40
2017,03,21,12,04,6.40
2017,03,21,12,05,6.50
2017,03,21,12,06,6.50
2017,03,21,12,07,6.50
2017,03,21,12,08,6.50
2017,03,21,12,09,6.40
2017,03,21,12,10,6.40
2017,03,21,12,11,6.40
2017,03,21,12,12,6.40
2017,03,21,12,13,6.40
2017,03,21,12,14,6.40
2017,03,21,12,15,6.40
2017,03,21,12,16,6.40
2017,03,21,12,17,6.40
2017,03,21,12,18,6.40
2017,03,21,12,19,6.40
2017,03,21,12,20,6.40
2017,03,21,12,21,6.40
2017,03,21,12,22,6.40
2017,03,21,12,23,6.40
2017,03,21,12,24,6.40
2017,03,21,12,25,6.40
2017,03,21,12,26,6.40
2017,03,21,12,27,6.40
2017,03,21,12,28,6.40
2017,03,21,12,29,6.40
2017,03,21,12,30,6.40
2017,03,21,12,31,6.40
2017,03,21,12,32,6.40
2017,03,21,12,33,6.40
2017,03,21,12,34,6.50
2017,03,21,12,35,6.50
2017,03,21,12,36,6.50
2017,03,21,12,37,6.50
2017,03,21,12,38,6.50
2017,03,21,12,39,6.50
2017,03,21,12,40,6.60
2017,03,21,12,41,6.60
2017,03,21,12,42,6.60
2017,03,21,12,43,6.60
2017,03,21,12,44,6.70
2017,03,21,12,45,6.70
2017,03,21,12,46,6.70
2017,03,21,12,47,6.80
2017,03,21,12,48,6.80
2017,03,21,12,49,6.80
2017,03,21,12,50,6.90
2017,03,21,12,51,6.90
2017,03,21,12,52,6.90
2017,03,21,12,53,7.00
2017,03,21,12,54,7.00
2017,03,21,12,55,7.00
2017,03,21,12,56,7.00
2017,03,21,12,57,7.00
2017,03,21,12,58,7.00
2017,03,21,12,59,7.10
2017,03,21,13,00,7.10
2017,03,21,13,01,7.20
2017,03,21,13,02,7.20
2017,03,21,13,03,7.20
2017,03,21,13,04,7.30
2017,03,21,13,05,7.40
2017,03,21,13,06,7.40
2017,03,21,13,07,7.50
2017,03,21,13,08,7.50
2017,03,21,13,09,7.50
2017,03,21,13,10,7.50
2017,03,21,13,11,7.50
2017,03,21,13,12,7.60
2017,03,21,13,13,7.60
2017,03,21,13,14,7.60
2017,03,21,13,15,7.60
2017,03,21,13,16,7.60
2017,03,21,13,17,7.60
2017,03,21,13,18,7.60
2017,03,21,13,19,7.60
2017,03,21,13,20,7.60
2017,03,21,13,21,7.60
2017,03,21,13,22,7.60
2017,03,21,13,23,7.70
2017,03,21,13,24,7.70
2017,03,21,13,25,7.70
2017,03,21,13,26,7.80
2017,03,21,13,27,7.80
2017,03,21,13,28,7.80
2017,03,21,13,29,7.80
2017,03,21,13,30,7.90
2017,03,21,13,31,7.90
2017,03,21,13,32,8.00
2017,03,21,13,33,8.00
2017,03,21,13,34,8.00
2017,03,21,13,35,8.00
2017,03,21,13,36,8.00
2017,03,21,13,37,8.00
2017,03,21,13,38,7.90
2017,03,21,13,39,8.00
2017,03,21,13,40,8.00
2017,03,21,13,41,8.00
2017,03,21,13,42,8.10
2017,03,21,13,43,8.10
2017,03,21,13,44,8.10
2017,03,21,13,45,8.10
2017,03,21,13,46,8.10
2017,03,21,13,47,8.10
2017,03,21,13,48,8.10
2017,03,21,13,49,8.10
2017,03,21,13,50,8.10
2017,03,21,13,51,8.00
2017,03,21,13,52,8.00
2017,03,21,13,53,8.00
2017,03,21,13,54,8.00
2017,03,21,13,55,8.00
2017,03,21,13,56,8.00
2017,03,21,13,57,8.00
2017,03,21,13,58,7.90
2017,03,21,13,59,7.90
2017,03,21,14,00,8.00
2017,03,21,14,01,8.00
2017,03,21,14,02,8.00
2017,03,21,14,03,8.00
2017,03,21,14,04,7.90
2017,03,21,14,05,7.90
2017,03,21,14,06,8.00
2017,03,21,14,07,8.00
2017,03,21,14,08,8.00
2017,03,21,14,09,8.00
2017,03,21,14,10,8.00
2017,03,21,14,11,8.00
2017,03,21,14,12,8.00
2017,03,21,14,13,8.10
2017,03,21,14,14,8.10
2017,03,21,14,15,8.10
2017,03,21,14,16,8.10
2017,03,21,14,17,8.10
2017,03,21,14,18,8.10
2017,03,21,14,19,8.10
2017,03,21,14,20,8.10
2017,03,21,14,21,8.10
2017,03,21,14,22,8.10
2017,03,21,14,23,8.10
2017,03,21,14,24,8.10
2017,03,21,14,25,8.10
2017,03,21,14,26,8.10
2017,03,21,14,27,8.10
2017,03,21,14,28,8.10
2017,03,21,14,29,8.10
2017,03,21,14,30,8.10
2017,03,21,14,31,8.10
2017,03,21,14,32,8.10
2017,03,21,14,33,8.10
2017,03,21,14,34,8.10
2017,03,21,14,35,8.10
2017,03,21,14,36,8.10
2017,03,21,14,37,8.10
2017,03,21,14,38,8.10
2017,03,21,14,39,8.10
2017,03,21,14,40,8.00
2017,03,21,14,41,8.00
2017,03,21,14,42,8.00
2017,03,21,14,43,8.10
2017,03,21,14,44,8.10
2017,03,21,14,45,8.10
2017,03,21,14,46,8.10
2017,03,21,14,47,8.10
2017,03,21,14,48,8.10
2017,03,21,14,49,8.10
2017,03,21,14,50,8.10
2017,03,21,14,51,8.10
2017,03,21,14,52,8.10
2017,03,21,14,53,8.20
2017,03,21,14,54,8.20
2017,03,21,14,55,8.20
2017,03,21,14,56,8.20
2017,03,21,14,57,8.20
2017,03,21,14,58,8.20
2017,03,21,14,59,8.20
2017,03,21,15,00,8.20
2017,03,21,15,01,8.20
2017,03,21,15,02,8.20
2017,03,21,15,03,8.30
2017,03,21,15,04,8.30
2017,03,21,15,05,8.30
2017,03,21,15,06,8.30
2017,03,21,15,07,8.30
2017,03,21,15,08,8.30
2017,03,21,15,09,8.30
2017,03,21,15,10,8.30
2017,03,21,15,11,8.30
2017,03,21,15,12,8.30
2017,03,21,15,13,8.30
2017,03,21,15,14,8.40
2017,03,21,15,15,8.40
2017,03,21,15,16,8.40
2017,03,21,15,17,8.40
2017,03,21,15,18,8.40
2017,03,21,15,19,8.40
2017,03,21,15,20,8.40
2017,03,21,15,21,8.50
2017,03,21,15,22,8.50
2017,03,21,15,23,8.50
2017,03,21,15,24,8.50
2017,03,21,15,25,8.50
2017,03,21,15,26,8.50
2017,03,21,15,27,8.50
2017,03,21,15,28,8.40
2017,03,21,15,29,8.40
2017,03,21,15,30,8.40
2017,03,21,15,31,8.40
2017,03,21,15,32,8.30
2017,03,21,15,33,8.30
2017,03,21,15,34,8.30
2017,03,21,15,35,8.30
2017,03,21,15,36,8.30
2017,03,21,15,37,8.30
2017,03,21,15,38,8.40
2017,03,21,15,39,8.40
2017,03,21,15,40,8.40
2017,03,21,15,41,8.40
2017,03,21,15,42,8.40
2017,03,21,15,43,8.40
2017,03,21,15,44,8.40
2017,03,21,15,45,8.40
2017,03,21,15,46,8.40
2017,03,21,15,47,8.40
2017,03,21,15,48,8.40
2017,03,21,15,49,8.40
2017,03,21,15,50,8.40
2017,03,21,15,51,8.40
2017,03,21,15,52,8.30
2017,03,21,15,53,8.30
2017,03,21,15,54,8.30
2017,03,21,15,55,8.30
2017,03,21,15,56,8.30
2017,03,21,15,57,8.30
2017,03,21,15,58,8.30
2017,03,21,15,59,8.30
2017,03,21,16,00,8.30
2017,03,21,16,01,8.30
2017,03,21,16,02,8.30
2017,03,21,16,03,8.30
2017,03,21,16,04,8.30
2017,03,21,16,05,8.40
2017,03,21,16,06,8.40
2017,03,21,16,07,8.40
2017,03,21,16,08,8.40
2017,03,21,16,09,8.30
2017,03,21,16,10,8.30
2017,03,21,16,11,8.30
2017,03,21,16,12,8.30
2017,03,21,16,13,8.30
2017,03,21,16,14,8.20
2017,03,21,16,15,8.20
2017,03,21,16,16,8.20
2017,03,21,16,17,8.20
2017,03,21,16,18,8.20
2017,03,21,16,19,8.20
2017,03,21,16,20,8.20
2017,03,21,16,21,8.20
2017,03,21,16,22,8.30
2017,03,21,16,23,8.30
2017,03,21,16,24,8.30
2017,03,21,16,25,8.30
2017,03,21,16,26,8.30
2017,03,21,16,27,8.30
2017,03,21,16,28,8.30
2017,03,21,16,29,8.30
2017,03,21,16,30,8.30
2017,03,21,16,31,8.30
2017,03,21,16,32,8.30
2017,03,21,16,33,8.30
2017,03,21,16,34,8.30
2017,03,21,16,35,8.20
2017,03,21,16,36,8.30
2017,03,21,16,37,8.30
2017,03,21,16,38,8.30
2017,03,21,16,39,8.30
2017,03,21,16,40,8.20
2017,03,21,16,41,8.20
2017,03,21,16,42,8.20
2017,03,21,16,43,8.20
2017,03,21,16,44,8.20
2017,03,21,16,45,8.20
2017,03,21,16,46,8.30
2017,03,21,16,47,8.30
2017,03,21,16,48,8.30
2017,03,21,16,49,8.30
2017,03,21,16,50,8.30
2017,03,21,16,51,8.30
2017,03,21,16,52,8.30
2017,03,21,16,53,8.30
2017,03,21,16,54,8.30
2017,03,21,16,55,8.30
2017,03,21,16,56,8.30
2017,03,21,16,57,8.30
2017,03,21,16,58,8.30
2017,03,21,16,59,8.30
2017,03,21,17,00,8.30
2017,03,21,17,01,8.30
2017,03,21,17,02,8.30
2017,03,21,17,03,8.30
2017,03,21,17,04,8.30
2017,03,21,17,05,8.30
2017,03,21,17,06,8.30
2017,03,21,17,07,8.30
2017,03,21,17,08,8.40
2017,03,21,17,09,8.50
2017,03,21,17,10,8.50
2017,03,21,17,11,8.60
2017,03,21,17,12,8.60
2017,03,21,17,13,8.60
2017,03,21,17,14,8.60
2017,03,21,17,15,8.60
2017,03,21,17,16,8.70
2017,03,21,17,17,8.80
2017,03,21,17,18,8.90
2017,03,21,17,19,8.90
2017,03,21,17,20,9.00
2017,03,21,17,21,8.90
2017,03,21,17,22,8.90
2017,03,21,17,23,8.80
2017,03,21,17,24,8.80
2017,03,21,17,25,8.80
2017,03,21,17,26,8.80
2017,03,21,17,27,8.80
2017,03,21,17,28,8.70
2017,03,21,17,29,8.70
2017,03,21,17,30,8.70
2017,03,21,17,31,8.70
2017,03,21,17,32,8.60
2017,03,21,17,33,8.60
2017,03,21,17,34,8.60
2017,03,21,17,35,8.60
2017,03,21,17,36,8.60
2017,03,21,17,37,8.60
2017,03,21,17,38,8.60
2017,03,21,17,39,8.50
2017,03,21,17,40,8.50
2017,03,21,17,41,8.40
2017,03,21,17,42,8.40
2017,03,21,17,43,8.40
2017,03,21,17,44,8.40
2017,03,21,17,45,8.40
2017,03,21,17,46,8.40
2017,03,21,17,47,8.40
2017,03,21,17,48,8.50
2017,03,21,17,49,8.50
2017,03,21,17,50,8.50
2017,03,21,17,51,8.50
2017,03,21,17,52,8.50
2017,03,21,17,53,8.50
2017,03,21,17,54,8.50
2017,03,21,17,55,8.50
2017,03,21,17,56,8.50
2017,03,21,17,57,8.50
2017,03,21,17,58,8.50
2017,03,21,17,59,8.50
2017,03,21,18,00,8.40
2017,03,21,18,01,8.40
2017,03,21,18,02,8.40
2017,03,21,18,03,8.40
2017,03,21,18,04,8.30
2017,03,21,18,05,8.30
2017,03,21,18,06,8.30